Home > Weather > Fujairah > Past weeks

Flag for United Arab Emirates Weather for the Past 2 Weeks in Fujairah, Fujairah, United Arab Emirates

Now
95 °F

Low level haze.


Feels Like: 94 °F
Forecast: 80 / 94 °F
Wind: 22 mph from West

Location: Fujairah

Current Time: May 1, 2016 at 11:00:15 AM

Latest Report: May 1, 2016 at 10:00 AM


Visibility: 3 mi

Pressure: 29.80 "Hg

Humidity: 28%

Dew Point: 57 °F

Location of FujairahLocation

Historic Weather in Fujairah — Graph

°F

Fujairah Temperature Yesterday

Maximum temperature yesterday: 104 °F (at 1:00 PM)
Minimum temperature yesterday: 84 °F (at 3:00 AM)
Average temperature yesterday: 94 °F

High & Low Weather Summary for the Past Weeks

 TemperatureHumidityPressure
High104 °F (Apr 30, 1:00 PM)100% (Apr 23, 2:00 PM)29.95 "Hg (Apr 23, 2:00 PM)
Low73 °F (Apr 17, 6:00 AM)9% (Apr 22, 2:00 PM)29.56 "Hg (Apr 30, 5:00 AM)
Average87 °F36%29.79 "Hg
* Reported Apr 16 10:00 AM — May 1 9:00 AM, Fujairah, Weather by CustomWeather, © 2016

Note: Actual official high and low records may vary slightly from our data, if they occured in-between our weather recording intervals... More about our weather records

Advertising

Fujairah Weather History for the Previous 24 Hours

Scroll right to see more
 ConditionsComfort  
Time TempWeatherWind HumidityBarometerVisibility
9:00 AM
Sun, May 1
91 °FClear.25 mph32%29.80 "Hg4 mi
8:00 AM91 °FClear.28 mph24%29.77 "Hg4 mi
7:00 AM91 °FClear.20 mph18%29.77 "Hg4 mi
6:00 AM88 °FClear.20 mph24%29.74 "Hg4 mi
5:00 AM90 °FClear.16 mph31%29.71 "Hg4 mi
4:00 AM90 °FClear.14 mph27%29.71 "Hg4 mi
3:00 AM91 °FClear.15 mph26%29.71 "Hg4 mi
2:00 AM91 °FClear.2 mph26%29.74 "Hg4 mi
1:00 AM93 °FClear.9 mph23%29.74 "Hg4 mi
12:00 AM93 °FClear.13 mph23%29.77 "Hg4 mi
11:00 PM
Sat, Apr 30
95 °FClear.15 mph20%29.80 "Hg4 mi
10:00 PM99 °FClear.17 mph18%29.80 "Hg4 mi
9:00 PM99 °FClear.14 mph15%29.77 "Hg4 mi
8:00 PM91 °FPassing clouds.3 mph38%29.77 "Hg4 mi
7:00 PM90 °FPassing clouds.7 mph49%29.74 "Hg4 mi
6:00 PM90 °FPassing clouds.6 mph49%29.74 "Hg4 mi
5:00 PM91 °FPassing clouds.12 mph49%29.71 "Hg4 mi
4:00 PM93 °FPassing clouds.12 mph44%29.71 "Hg4 mi
3:00 PM93 °FPassing clouds.10 mph49%29.74 "Hg4 mi
2:00 PM104 °FPassing clouds.12 mph13%29.74 "Hg4 mi
1:00 PM104 °FPassing clouds.15 mph15%29.77 "Hg4 mi
12:00 PM95 °FPassing clouds.8 mph50%29.77 "Hg4 mi
11:00 AM102 °FClear.14 mph16%29.77 "Hg4 mi
Weather by CustomWeather, © 2016

See weather overviewHow to use our weather pages